Dewpoint
46 41 38 39 38 34 33 33 32 33 32 28 28 27 27 28 28 28 29 31 33 33 34 34 34 35 35 35 34 36 47 58 63 65 64 64 63 63 61 61 60 58 56 55
42 38 40 42 41 39 35 34 32 30 29 28 27 26 27 27 27 27 28 28 29 30 30 31 32 33 34 34 35 34 38 55 61 64 64 63 63 63 63 62 61 59 56 55
36 37 41 40 39 38 36 34 31 29 28 27 26 22 22 23 24 25 26 27 28 28 28 29 29 30 31 33 34 35 36 41 59 63 63 61 61 60 61 60 60 58 57 55
32 32 38 36 37 36 30 29 29 27 26 25 27 20 23 21 21 23 23 23 24 26 28 29 29 29 30 30 32 34 36 38 44 60 62 61 60 60 61 61 61 58 56 56
32 30 34 34 33 30 28 29 28 27 25 24 24 22 18 20 14 16 20 20 21 21 22 24 27 28 29 30 30 31 32 35 39 48 61 61 61 60 60 60 60 57 54 56
31 33 31 30 31 30 30 27 26 27 24 18 20 21 12 13 17 18 19 21 21 22 23 25 26 31 35 37 34 33 31 32 35 39 49 60 60 58 57 56 57 55 52 53
30 30 31 31 29 30 27 26 18 13 17 11 23 21 15 19 21 22 22 22 25 23 22 27 34 37 38 38 38 38 38 37 39 39 41 51 58 58 56 56 56 53 52 50
27 26 29 31 29 28 27 25 15 4 10 17 23 19 14 22 20 22 25 27 30 31 31 34 36 37 37 36 36 37 39 39 40 41 40 45 53 57 57 55 55 53 53 52
25 24 31 31 31 29 28 25 25 22 20 19 18 18 16 20 22 23 24 25 27 29 31 32 34 35 37 37 37 37 38 40 42 42 42 44 51 56 55 55 53 52 50 47
27 26 30 31 31 30 27 28 23 22 7 4 12 15 9 17 19 23 24 26 27 29 33 35 33 34 35 37 39 39 40 41 43 44 44 46 52 54 54 52 50 48 46 45
29 27 30 30 28 28 27 26 26 24 20 14 12 10 20 19 22 24 26 29 32 37 39 40 37 38 38 38 39 39 41 45 46 46 48 50 51 51 50 48 46 45 43 41
29 27 27 27 28 29 29 26 25 18 16 24 22 17 24 24 24 25 27 33 37 41 41 41 41 40 40 38 39 41 46 47 48 49 49 49 48 47 46 45 44 43 41 41
27 24 21 23 25 28 27 28 25 25 24 21 18 17 24 24 25 27 31 36 41 41 40 40 41 40 37 41 44 42 39 40 43 46 45 45 45 44 43 43 42 39 37 34
29 25 21 16 21 25 25 27 27 26 24 22 22 21 23 25 27 30 33 42 41 41 41 41 41 41 43 41 38 35 35 37 39 40 41 42 42 41 40 37 37 36 31 28
28 25 26 26 27 28 27 26 28 26 26 23 22 23 25 27 29 31 42 40 39 39 38 40 41 41 42 37 34 35 37 36 36 36 35 35 36 35 33 31 30 29 28 27
29 27 28 24 26 27 26 27 27 28 28 27 27 27 28 29 32 40 40 38 35 33 31 31 39 38 34 31 31 33 33 35 35 34 34 31 30 29 30 29 29 29 29 29
29 27 25 20 24 26 24 26 26 27 27 26 25 28 31 36 37 41 38 34 29 28 26 32 38 33 29 29 30 31 31 29 29 29 30 31 32 32 32 31 31 31 31 31
29 28 28 24 24 18 25 30 28 27 28 29 30 31 33 37 40 39 35 29 25 26 24 28 28 26 26 27 30 32 33 34 33 32 33 33 34 34 33 34 33 33 33 32
32 31 27 24 23 23 26 29 32 30 31 33 32 34 36 37 41 39 34 25 26 26 26 25 25 26 27 27 29 31 33 34 34 34 34 34 34 33 33 33 33 33 33 32
35 35 30 27 22 19 28 31 35 35 30 35 36 35 35 39 37 38 34 29 28 27 28 29 30 30 29 29 30 30 31 32 33 34 35 35 35 34 34 33 32 33 33 32
32 32 28 25 24 24 27 29 38 29 31 35 36 36 35 37 39 35 34 31 31 30 30 32 33 33 34 34 34 33 32 32 35 35 34 34 34 34 33 33 32 31 30 27
30 29 27 28 25 21 29 36 33 34 36 35 35 35 37 39 36 32 36 34 33 33 33 34 33 34 34 34 33 32 31 32 33 34 33 33 33 32 30 27 20 15 13 11
30 31 29 28 26 28 30 31 35 36 35 34 34 34 38 38 35 32 36 36 34 34 35 35 35 34 35 34 33 31 32 33 32 31 28 22 20 20 17 14 12 11 10 9
32 33 32 33 33 33 34 36 35 35 35 34 34 34 38 37 34 29 35 36 35 35 35 34 34 33 33 34 33 32 31 29 26 20 17 15 14 14 13 12 12 11 10 11
34 34 34 33 34 34 35 35 35 35 35 33 35 36 38 36 33 27 30 31 32 31 28 29 30 31 31 32 31 30 21 19 18 17 17 16 14 13 14 14 11 9 8 8
34 33 31 30 33 34 35 36 36 35 34 33 34 36 39 36 33 28 25 26 23 22 20 21 20 21 20 20 19 18 18 17 16 16 15 14 14 15 16 17 18 20 19 18
Wind_Speed
8 6 18 20 17 4 9 5 4 4 3 6 11 12 21 20 17 21 24 26 27 27 25 16 18 18 18 18 16 17 21 23 20 19 20 19 23 22 16 18 20 20 19 20
5 8 6 5 4 4 2 2 4 7 1 5 12 23 27 27 22 25 29 29 27 24 21 20 18 19 18 20 19 15 19 23 23 22 23 17 19 20 24 19 19 20 21 22
9 6 19 14 10 9 6 6 4 5 6 1 13 16 11 9 10 11 20 23 23 24 26 24 19 22 23 22 22 20 16 20 22 24 17 5 8 4 12 14 17 19 20 21
5 6 17 14 12 10 7 3 4 3 5 6 7 12 13 13 20 13 17 19 17 18 20 22 21 19 17 21 20 18 16 15 18 20 19 22 24 22 19 24 22 19 20 20
3 8 12 9 4 6 5 7 6 4 3 5 1 5 11 7 10 6 4 7 10 16 14 19 16 13 14 14 15 14 14 10 13 15 20 22 23 17 15 18 21 17 16 19
4 3 3 4 5 3 14 7 7 5 3 5 2 4 10 3 1 8 9 24 19 19 16 14 7 2 1 3 1 4 8 11 11 13 18 24 25 18 18 17 19 19 16 16
4 3 3 8 11 6 6 7 3 2 1 7 4 4 15 12 13 11 15 18 19 17 15 12 10 8 4 1 2 2 2 6 5 7 13 21 25 20 24 25 21 18 20 16
7 4 6 3 4 7 4 5 5 4 2 5 2 7 4 1 9 4 7 7 16 22 19 16 14 14 15 12 8 7 6 8 10 10 12 16 20 19 21 20 19 23 24 19
6 3 1 4 4 7 5 4 2 4 3 2 4 7 13 9 10 10 15 17 20 16 13 13 14 15 17 17 18 12 10 11 14 15 15 14 19 21 22 24 21 17 15 17
4 6 3 3 6 6 3 13 3 1 3 4 4 8 9 3 3 6 14 18 18 15 19 20 19 17 19 19 19 16 12 12 15 17 17 16 18 22 20 17 19 19 18 18
5 4 2 7 4 9 6 4 4 4 3 2 5 7 6 3 4 10 20 19 15 18 18 19 19 18 21 22 20 17 14 12 14 15 14 11 11 11 14 14 15 18 16 18
1 5 6 5 1 2 5 6 6 4 4 2 1 11 5 7 6 15 23 20 22 23 18 20 21 25 23 20 14 11 17 16 13 9 6 9 10 12 13 14 13 15 18 15
6 2 5 2 3 1 4 5 6 6 3 6 3 8 2 11 27 25 24 25 23 19 17 19 23 24 14 6 7 9 12 13 12 5 3 6 10 13 13 15 17 16 19 18
6 3 3 5 2 4 5 8 13 12 5 5 17 19 28 26 26 29 24 16 15 16 18 17 20 12 5 9 17 15 14 11 9 8 7 8 10 12 14 15 17 19 20 22
4 2 3 6 8 5 6 5 12 21 19 11 6 14 29 28 27 24 11 14 16 18 17 18 16 15 9 12 11 10 12 11 10 12 14 12 11 15 18 18 17 20 21 23
2 2 1 4 4 9 12 13 14 16 17 21 28 33 35 30 18 13 9 13 17 17 19 20 14 10 10 9 10 11 10 11 12 15 15 16 16 18 19 20 20 21 22 24
4 5 1 3 3 6 9 19 20 11 10 15 21 25 20 15 17 13 9 12 14 17 19 21 9 3 4 7 9 12 13 14 17 18 17 18 17 18 18 21 21 21 23 24
8 5 2 3 3 3 3 3 10 19 18 20 20 22 21 15 11 2 4 10 12 15 17 15 8 7 8 9 10 12 13 12 14 17 20 17 17 16 14 19 22 20 20 21
4 5 1 1 4 9 3 2 4 5 9 8 19 21 14 10 4 4 6 7 8 9 8 9 10 9 9 10 9 12 11 11 15 13 15 15 13 15 16 17 19 17 20 18
6 6 3 1 3 3 2 4 2 6 2 2 7 10 11 9 8 3 4 6 7 7 7 6 7 8 9 8 9 12 11 12 13 12 15 14 12 15 17 17 17 15 17 15
4 4 9 8 4 9 11 7 5 1 4 7 6 9 9 5 4 2 3 5 6 6 5 7 9 9 9 11 13 14 14 14 13 15 16 15 14 14 15 17 15 14 16 12
10 7 5 6 5 7 4 3 1 2 4 6 9 6 8 6 3 2 4 6 5 5 5 5 8 10 9 10 12 13 14 9 13 15 15 13 13 13 14 16 11 12 14 13
6 9 5 11 8 5 2 9 8 3 5 6 7 8 8 7 7 4 4 6 5 6 5 5 8 10 9 9 11 14 9 11 13 16 14 12 13 12 11 14 14 12 10 11
5 10 6 3 2 5 14 11 8 4 5 6 9 9 8 9 8 7 7 7 7 6 6 6 7 10 9 7 9 10 11 12 13 13 13 14 15 15 13 12 11 11 10 9
3 5 5 9 13 13 4 3 8 6 4 7 7 7 9 10 10 9 9 9 9 8 7 7 7 10 10 10 9 9 8 12 14 15 14 14 13 14 14 12 10 11 6 7
4 2 2 5 10 10 12 10 8 7 7 6 6 5 5 11 12 11 10 11 11 10 9 10 8 10 10 10 11 10 10 13 16 15 12 12 12 11 11 12 11 10 9 9
Wind_Direction
171 165 192 189 192 189 179 169 191 237 260 306 276 278 279 273 274 272 267 266 270 266 268 262 257 252 249 259 244 226 210 210 199 190 192 201 204 209 209 209 211 199 191 185
144 207 153 144 181 157 186 189 282 295 160 322 304 295 279 273 260 252 257 258 256 260 264 263 260 261 255 251 256 241 219 207 204 198 201 202 202 209 212 208 210 202 190 183
174 153 167 171 179 189 218 211 234 260 318 77 331 291 271 292 272 270 255 258 266 263 267 269 263 255 256 250 249 249 233 216 206 203 204 174 153 119 194 207 209 207 189 183
112 138 162 161 178 183 172 181 159 70 4 288 29 296 303 297 299 286 265 254 269 273 268 267 267 264 259 262 257 250 250 235 216 207 204 206 203 202 203 206 208 200 182 182
172 148 162 160 183 158 152 117 94 87 57 330 285 241 279 321 303 324 16 26 333 316 293 282 280 273 271 259 254 246 241 235 238 219 208 206 218 220 201 199 196 188 174 182
135 122 105 132 87 130 130 89 58 64 50 274 293 197 282 266 0 334 345 336 335 341 353 333 293 263 137 65 144 227 233 240 232 226 215 215 220 211 195 196 190 185 177 180
72 38 55 113 89 72 108 113 277 309 187 237 130 182 252 276 295 311 316 352 4 0 345 342 345 333 319 289 293 283 255 258 247 241 235 220 225 209 203 199 196 186 184 187
154 160 168 160 148 172 156 162 190 226 238 295 159 234 249 341 319 69 63 22 18 17 14 1 346 333 322 313 313 308 293 289 290 280 256 239 228 212 211 200 193 197 194 197
143 98 88 161 129 142 167 184 148 108 72 300 259 279 296 89 55 32 9 1 346 343 345 338 322 313 302 294 295 296 303 302 299 296 294 256 223 212 208 203 198 197 184 166
169 107 132 119 110 61 165 151 134 74 213 259 290 275 243 207 340 358 348 327 316 316 321 316 300 295 293 283 278 286 282 285 293 294 286 271 221 206 207 190 184 174 161 155
121 96 156 143 200 176 140 179 78 121 145 213 314 276 225 211 331 338 334 319 318 320 314 312 293 289 277 274 268 273 276 279 288 292 283 248 213 197 178 175 163 154 146 146
100 113 158 177 46 231 179 180 149 172 186 139 171 275 267 263 338 320 324 325 327 324 324 323 314 302 286 275 266 296 311 313 322 307 239 195 168 156 154 146 137 136 134 141
172 81 117 30 313 7 199 188 158 120 116 209 200 256 339 324 328 321 319 328 326 323 324 328 324 310 301 320 358 346 346 346 360 18 149 149 146 140 137 133 133 126 126 126
117 127 164 199 169 142 198 199 190 188 195 212 232 279 291 307 308 312 322 329 331 318 319 316 337 332 25 11 25 5 2 14 36 64 77 102 110 114 117 115 119 123 120 118
119 162 190 245 236 201 223 220 199 208 215 229 257 281 284 294 298 304 321 326 322 319 324 325 330 328 360 27 21 29 35 42 67 78 80 83 100 110 108 107 112 113 112 107
50 146 102 297 295 232 252 241 225 224 234 251 264 277 278 277 285 306 318 330 321 320 319 317 309 344 6 28 38 46 47 54 66 75 78 80 84 90 98 102 100 102 102 103
132 150 78 293 329 319 274 242 212 214 215 225 243 251 272 294 315 316 321 324 327 329 328 326 300 26 45 61 73 68 64 64 71 73 73 74 76 81 92 97 96 96 95 96
143 128 126 277 348 246 262 150 192 214 240 220 249 266 280 294 306 191 2 334 339 342 353 3 35 58 65 80 80 80 72 75 81 89 89 84 90 92 97 102 101 100 102 98
140 136 159 254 262 292 288 241 144 186 290 242 240 266 281 308 320 268 18 7 359 357 22 47 63 67 63 64 76 86 88 90 87 89 98 107 123 123 111 104 102 105 102 103
107 111 149 225 254 246 165 142 134 123 246 287 228 279 294 333 324 322 28 34 20 24 31 50 59 64 67 60 69 78 75 79 84 86 87 90 100 102 97 97 88 90 96 105
177 195 219 231 269 281 259 258 143 30 325 320 297 291 289 264 249 113 110 74 59 41 52 64 68 72 60 67 82 80 73 68 75 77 78 77 79 90 94 95 99 103 102 109
182 184 196 189 221 259 221 119 43 272 300 305 307 290 271 248 202 168 97 88 83 62 67 75 85 74 71 86 96 95 93 89 87 90 93 97 91 93 97 102 112 109 114 116
208 192 192 200 222 257 260 294 281 233 292 299 290 292 254 216 207 184 138 120 116 99 82 76 85 92 76 87 107 109 111 109 103 95 96 92 93 97 99 106 103 101 106 108
233 205 234 300 321 273 282 299 280 259 275 281 275 272 224 213 193 174 146 139 132 131 124 123 114 106 98 96 105 110 116 116 107 101 99 100 101 98 95 94 98 101 99 101
244 322 251 267 275 302 294 277 281 285 270 282 279 255 224 198 201 176 160 151 146 137 130 133 137 126 122 126 122 120 101 110 108 107 106 103 102 100 92 82 91 93 87 122
207 243 245 271 297 285 277 298 302 279 288 285 264 269 213 202 199 177 162 151 146 150 145 137 127 123 122 120 117 119 121 124 123 119 117 112 105 101 103 108 92 79 86 88